Starlink 32426

operational
NORAD ID: 61681 Int'l Des: 2024-193 Owner: SPXS Country: US Constellation: starlink
LEOCIRCULAR

Über Starlink 32426

Beschreibung wird geladen...

Live-Position

3D-Globus wird geladen...

Nächste Überflüge

Höhenverlauf

Altitude vs Time

uPlot chart will show altitude changes over time

Zweizeiliger Elementsatz

1 61681U 24193W 26034.01609244 .00000433 00000-0 26733-4 0 9997
2 61681 53.1569 252.3625 0001081 90.9961 269.1163 15.30193466 71219
Epoch: 3. Feb. 2026 • Age: 17 hours

Aktueller Status

Höhe 491.2 km
Geschwindigkeit 7.62 km/s
Subsatellitenpunkt -45.18°S, 87.07°E
Startdatum 26. Okt. 2024
Alter 1.2 years
Typ internet

Technische Details

Klassifizierung Payload
Masse 730.00 kg
Trockenmasse 700.00 kg
Gesamtmasse 730.00 kg
Länge 0.30 m
Durchmesser 4.10 m
Spannweite 29.00 m
Form Box + pan
Hersteller SPXS
Bus-Typ Starlink V2M
Phasenstatus In Orbit
Besitzer/Staat SPXS/US

Große Konstellationen

Loading constellations...